GFSSE_850_dewp_198.txt.gz
Dewpoint
10 9 7 4 6 7 7 6 6 5 4 4 6 6 6 5 4 5 5 4 4 4 4 3 3 3 3 3 2 2 2 4 6 6 10 8 9 10 10 10 9 7 6
9 8 7 2 3 6 5 4 4 4 4 4 4 3 4 4 5 5 5 5 5 5 5 6 6 5 4 3 3 3 3 3 5 6 11 10 10 11 11 10 9 8 7
10 9 7 3 3 5 5 5 6 6 5 4 4 4 4 5 5 5 6 6 7 8 8 8 8 8 7 5 4 4 4 3 4 5 11 9 10 11 10 9 9 9 9
11 10 6 3 3 4 5 6 7 6 6 5 5 5 5 5 6 6 8 8 8 8 9 9 9 10 9 9 9 7 5 4 3 4 9 9 10 11 11 10 10 8 9
11 10 7 4 3 4 5 6 7 6 6 5 6 6 6 7 7 7 7 7 7 7 8 8 8 7 7 8 9 10 10 9 5 3 4 9 10 11 11 11 10 9 9
11 10 8 4 4 4 4 6 6 6 6 6 7 7 8 8 6 5 6 6 4 2 -0 -4 -5 -7 -7 -7 -7 -2 6 10 11 8 6 10 11 12 12 11 10 11 10
11 10 9 7 6 6 6 7 7 8 8 8 8 9 9 8 5 4 4 3 -2 -6 -7 -9 -9 -10 -11 -11 -11 -10 -9 -4 8 11 9 9 12 12 12 12 11 12 11
12 11 10 11 10 11 10 10 11 10 10 11 11 9 8 6 4 4 3 -1 -7 -10 -10 -11 -11 -11 -11 -12 -12 -12 -12 -11 -7 3 11 11 11 12 12 12 12 12 11
13 12 11 11 12 13 13 13 13 13 12 11 9 9 8 6 4 3 -1 -7 -10 -10 -11 -11 -12 -12 -12 -12 -12 -12 -11 -11 -7 -4 1 8 12 11 10 10 10 10 11
13 13 12 12 12 13 13 13 13 13 11 10 10 10 9 7 4 2 -5 -10 -11 -11 -11 -12 -12 -12 -12 -12 -12 -12 -10 -6 -2 2 4 4 4 3 4 4 4 5 6
13 13 13 13 13 13 13 13 13 12 12 11 11 11 10 8 4 -2 -9 -10 -11 -11 -11 -11 -11 -11 -12 -12 -13 -13 -12 -9 -5 -2 -0 0 0 -2 -4 -6 -7 -5 5
13 12 12 12 12 12 12 13 13 12 11 12 12 12 10 7 2 -8 -10 -10 -10 -11 -11 -10 -10 -11 -11 -12 -12 -13 -12 -11 -8 -6 -5 -5 -6 1 -4 -8 -4 -1 3
12 12 11 11 11 11 11 11 11 12 12 12 12 11 9 6 -4 -7 -9 -10 -10 -10 -10 -10 -10 -10 -10 -10 -11 -11 -11 -10 -9 -8 -6 -5 -3 3 7 7 7 6 5
12 12 11 11 11 11 12 12 12 12 12 12 11 10 8 -1 -5 -6 -7 -7 -8 -8 -9 -9 -9 -9 -10 -10 -9 -9 -8 -7 -5 -4 -2 -3 -5 -1 7 6 5 4 3
12 12 11 11 10 11 12 11 10 10 10 11 9 6 -0 -5 -6 -6 -6 -6 -7 -7 -8 -8 -9 -9 -9 -9 -8 -6 -5 -4 -3 -3 -4 -4 -6 -5 5 3 0 1 -5
11 12 11 11 11 12 10 8 8 8 8 6 3 -0 -3 -3 -4 -4 -5 -6 -7 -8 -8 -8 -9 -9 -8 -8 -6 -3 -2 -2 -2 -3 -4 -5 -5 -7 -5 -9 -11 -12 -12
9 11 11 11 11 11 8 8 6 3 2 -0 -2 -4 -4 -4 -5 -5 -5 -6 -7 -8 -8 -9 -8 -7 -7 -7 -5 -2 -1 -0 -1 -1 -2 -3 -5 -6 -6 -8 -10 -12 -14
10 11 11 11 12 10 8 6 4 1 -0 0 0 -1 -3 -4 -4 -5 -5 -6 -7 -8 -9 -9 -9 -8 -7 -5 -4 -1 0 1 0 -0 -1 -3 -4 -5 -6 -7 -8 -10 -12
10 11 11 11 11 9 7 6 6 4 3 3 2 0 -2 -4 -5 -5 -6 -7 -7 -8 -9 -9 -9 -9 -8 -6 -3 0 1 1 0 -0 -1 -2 -3 -4 -5 -7 -9 -11 -14
9 11 11 11 11 9 6 6 5 4 3 3 3 1 -3 -5 -6 -6 -7 -7 -8 -9 -9 -9 -10 -10 -10 -7 -2 1 1 -0 -1 -2 -2 -2 -3 -4 -5 -7 -8 -11 -14
9 11 11 12 11 10 7 6 5 4 4 3 2 -1 -4 -5 -6 -7 -8 -8 -8 -9 -9 -11 -13 -12 -11 -6 -3 0 -1 -1 -2 -2 -2 -3 -4 -4 -5 -6 -8 -10 -12
8 9 10 11 11 10 7 6 5 4 3 3 1 -1 -3 -5 -6 -7 -8 -8 -8 -9 -10 -13 -14 -14 -12 -6 -2 -2 -1 -2 -2 -2 -2 -3 -4 -4 -5 -6 -7 -10 -15
9 9 10 10 10 9 7 6 5 4 3 2 0 -1 -3 -5 -6 -7 -8 -8 -9 -10 -12 -15 -17 -15 -14 -4 -1 -3 -2 -2 -2 -3 -3 -3 -4 -5 -5 -6 -8 -13 -21
9 10 10 10 10 7 6 5 5 4 3 2 -0 -2 -4 -6 -6 -7 -8 -9 -10 -12 -14 -17 -19 -18 -15 -12 -2 -2 -1 -2 -2 -3 -3 -4 -5 -6 -6 -7 -10 -18 -19
9 8 8 8 7 6 6 6 5 4 3 1 -1 -2 -5 -6 -7 -7 -8 -10 -11 -13 -16 -19 -22 -23 -22 -19 -14 -5 -1 -1 -2 -3 -5 -6 -6 -7 -8 -9 -11 -17 -16
8 7 7 7 6 5 5 5 5 5 4 2 0 -2 -5 -6 -8 -9 -9 -11 -13 -15 -19 -22 -23 -26 -28 -27 -20 -8 -2 -2 -2 -2 -4 -6 -6 -9 -8 -9 -12 -15 -14

GFSSE_850_dewp_201.txt.gz
Dewpoint
12 9 8 7 11 13 13 12 11 10 9 9 8 8 8 7 5 5 4 4 4 5 5 5 4 3 3 2 2 2 2 4 4 5 7 8 9 11 10 9 7 7 7
11 10 8 5 7 11 11 10 10 9 8 8 8 8 6 4 4 4 4 5 12 12 12 8 4 4 3 3 3 3 2 3 4 6 10 9 10 11 10 9 9 8 8
11 9 8 5 5 8 8 8 8 7 7 8 7 5 4 4 5 5 5 6 6 7 8 8 8 7 6 5 4 4 3 2 3 7 10 9 11 11 10 9 8 8 9
10 9 6 4 5 6 6 4 9 8 8 7 5 5 5 5 6 6 7 8 7 8 8 9 9 9 9 9 9 7 5 4 3 5 9 9 10 10 11 10 10 8 9
11 9 5 2 4 5 5 6 7 7 7 7 6 6 6 6 6 7 8 8 7 8 8 6 6 6 7 7 9 10 10 8 5 4 7 10 12 11 11 11 10 9 9
11 9 5 2 5 5 4 6 8 8 7 7 7 7 7 7 7 7 7 6 6 5 2 -4 -8 -9 -7 -6 -5 -1 7 10 10 7 7 11 12 12 12 11 11 11 10
10 9 6 4 5 5 5 7 7 8 8 8 7 7 8 9 7 5 5 4 2 -3 -6 -9 -10 -11 -11 -11 -11 -10 -7 1 10 10 8 11 12 12 12 12 11 12 11
10 10 8 6 6 6 7 7 7 8 9 9 8 9 10 9 7 5 4 1 -5 -8 -10 -10 -11 -11 -12 -12 -12 -12 -12 -8 -0 9 11 12 12 12 12 12 12 12 11
13 11 10 9 8 7 7 9 12 12 11 10 11 11 9 9 7 6 5 -2 -9 -11 -11 -11 -12 -12 -12 -12 -12 -12 -11 -10 -6 -2 6 10 11 11 11 10 10 11 10
13 12 12 12 12 11 12 12 12 13 13 13 12 10 10 9 8 6 2 -7 -10 -10 -11 -12 -12 -12 -12 -12 -12 -10 -6 -2 1 3 5 4 4 3 2 1 2 4 6
13 13 13 12 12 12 12 12 13 12 13 12 11 11 11 10 8 5 -3 -9 -10 -10 -11 -11 -11 -11 -12 -12 -12 -10 -7 -4 -0 1 1 0 -2 -4 -7 -9 -8 -5 1
13 13 13 12 12 12 12 12 12 12 12 13 11 11 12 10 6 1 -6 -9 -10 -10 -10 -10 -10 -11 -11 -12 -12 -11 -10 -7 -5 -4 3 7 4 -3 0 1 -0 -1 -0
13 13 12 12 12 12 11 11 11 12 12 12 11 12 12 9 6 -1 -8 -9 -9 -9 -9 -9 -10 -10 -10 -11 -11 -11 -10 -9 -8 -6 -0 -2 6 7 6 7 3 -4 -6
12 12 12 12 11 11 11 12 12 12 12 12 12 12 11 9 8 -2 -6 -7 -8 -8 -8 -8 -9 -9 -9 -9 -9 -9 -9 -8 -6 -4 -1 -4 6 6 6 3 -1 -8 -13
11 11 12 12 11 11 11 11 12 12 12 12 12 12 11 9 5 -4 -6 -7 -7 -7 -8 -8 -9 -8 -8 -8 -7 -6 -6 -5 -4 -4 -4 -5 0 4 -4 -6 -5 -7 -13
10 11 12 12 11 11 11 11 12 12 11 11 10 10 8 3 -1 -4 -6 -6 -7 -7 -8 -9 -9 -9 -8 -6 -5 -3 -3 -3 -3 -3 -3 -4 -6 -8 -9 -9 -10 -12 -13
11 11 12 12 11 10 10 11 12 10 10 9 9 6 3 -0 -2 -3 -3 -5 -7 -8 -8 -8 -9 -9 -8 -5 -3 -1 -1 -1 -2 -2 -3 -3 -4 -6 -6 -7 -8 -9 -12
11 10 11 12 11 11 10 11 8 7 6 5 3 1 -1 -2 -2 -2 -2 -4 -6 -7 -7 -8 -8 -7 -6 -4 -2 0 0 -0 -1 -1 -2 -3 -4 -4 -5 -6 -8 -10 -13
10 9 10 11 11 11 11 9 4 4 2 1 0 0 -1 -1 -2 -2 -3 -5 -6 -7 -8 -8 -8 -7 -7 -3 -1 1 1 0 -0 -1 -2 -2 -3 -4 -5 -6 -7 -10 -14
10 10 10 10 11 11 11 7 4 4 3 2 2 2 1 -1 -1 -2 -3 -5 -6 -7 -8 -8 -8 -7 -7 -4 0 1 1 -0 -1 -2 -2 -2 -3 -4 -4 -5 -7 -10 -14
9 10 10 11 11 11 11 7 5 5 5 4 3 3 2 -1 -3 -4 -4 -5 -7 -8 -8 -8 -8 -9 -7 -3 -2 1 -0 -1 -1 -2 -2 -3 -4 -4 -4 -5 -8 -13 -16
4 9 10 11 11 11 10 9 6 6 5 4 3 2 0 -2 -4 -5 -6 -6 -7 -8 -8 -9 -10 -9 -7 -2 -2 -1 -1 -1 -2 -2 -3 -3 -4 -4 -4 -5 -9 -14 -23
1 7 10 10 11 11 10 9 6 6 5 4 3 2 -0 -3 -4 -5 -6 -7 -7 -8 -9 -11 -11 -11 -9 -3 -2 -2 -1 -1 -2 -3 -3 -4 -4 -5 -5 -7 -11 -18 -24
5 8 9 10 10 10 10 9 8 7 5 4 3 1 -1 -3 -4 -4 -5 -6 -7 -9 -11 -13 -12 -12 -12 -7 -3 -5 -4 -4 -2 -3 -3 -4 -5 -5 -6 -8 -13 -21 -21
6 8 9 9 9 9 7 6 6 5 4 2 1 -0 -1 -3 -4 -4 -5 -6 -8 -10 -12 -15 -15 -13 -11 -9 -6 -4 -2 -2 -3 -3 -4 -4 -6 -7 -7 -9 -14 -18 -17
7 7 7 8 7 6 5 5 4 4 3 3 2 2 -1 -3 -4 -5 -5 -6 -9 -11 -14 -17 -19 -19 -19 -14 -8 -5 -3 -3 -2 -3 -4 -5 -6 -8 -8 -10 -14 -16 -13

GFSSE_850_dewp_204.txt.gz
Dewpoint
13 13 8 12 12 11 11 11 11 11 10 10 10 10 10 9 8 6 5 5 4 3 2 2 2 3 3 2 2 2 3 4 3 4 6 7 10 10 8 7 11 11 7
13 14 9 12 14 12 12 12 11 10 10 10 9 10 9 8 6 5 5 4 6 7 6 3 2 2 2 2 2 2 2 3 3 7 8 9 10 10 9 8 9 9 8
15 14 9 11 13 13 13 12 11 10 9 10 10 9 8 6 5 5 5 8 12 9 6 7 7 5 4 3 3 2 2 2 4 9 9 12 13 11 10 9 8 8 8
15 15 14 10 10 11 11 10 10 10 8 9 9 8 6 6 6 6 6 6 7 8 8 8 8 8 9 9 7 5 4 3 3 8 11 11 12 10 11 10 9 8 8
15 15 14 5 6 8 8 9 9 8 10 8 7 6 6 6 7 7 7 8 9 9 8 8 8 8 7 7 9 10 9 6 4 11 12 13 11 12 11 11 10 9 9
14 14 9 4 7 10 10 10 12 8 9 7 7 7 8 7 8 8 8 8 8 7 5 0 -3 -4 -5 -6 -6 -1 8 10 12 13 13 12 12 12 11 11 11 11 10
14 14 7 7 13 13 12 12 12 8 7 6 7 7 8 8 9 9 8 7 5 2 -4 -7 -9 -9 -10 -10 -10 -9 -6 8 12 12 11 11 12 12 12 12 11 12 11
12 13 10 4 8 12 12 12 10 9 11 11 7 7 8 10 10 8 7 6 3 -4 -8 -10 -11 -11 -11 -12 -12 -12 -10 1 10 12 12 12 12 12 12 12 12 12 12
11 12 12 7 7 7 8 9 11 10 9 10 8 8 10 11 9 8 7 5 -2 -8 -10 -11 -11 -12 -12 -12 -12 -12 -10 -0 9 9 10 11 11 11 11 11 11 11 11
11 12 13 13 12 11 11 12 11 11 13 11 9 10 11 10 9 8 7 2 -8 -10 -11 -11 -11 -11 -11 -11 -11 -10 -6 3 9 8 9 9 7 3 2 3 5 5 6
14 13 13 13 13 12 12 11 12 12 12 12 13 12 11 11 10 8 5 -4 -10 -10 -11 -11 -11 -11 -11 -12 -11 -9 2 7 6 6 7 0 -2 -1 -2 -5 -8 -7 -7
14 13 13 13 13 13 12 12 13 12 12 12 12 12 12 11 10 7 3 -5 -10 -10 -10 -11 -11 -11 -5 -3 -10 -3 5 5 5 8 8 4 4 8 6 0 -4 -7 -9
13 14 13 13 13 12 12 12 13 13 12 12 12 12 12 11 10 5 4 -4 -9 -10 -10 -9 -10 1 3 3 3 4 4 4 6 7 7 7 8 7 2 -5 -11 -13 -14
13 12 13 13 13 12 12 12 12 12 12 11 12 13 12 11 8 7 3 -6 -8 -8 -6 -8 -8 -9 -9 -8 -5 0 4 5 6 6 7 8 7 4 -4 -7 -13 -16 -17
13 13 13 12 12 12 11 11 11 12 12 12 12 12 12 11 10 9 2 -6 -6 -7 -6 -5 -7 -8 -9 -8 -6 0 4 5 5 5 5 5 3 -4 -9 -9 -11 -11 -14
13 13 13 12 12 12 11 11 11 12 11 11 11 12 12 11 9 6 -0 -4 -5 -5 -3 -1 -0 3 3 1 -4 -1 2 4 4 5 4 -2 -5 -8 -8 -8 -9 -10 -10
13 13 13 11 11 12 11 11 11 11 12 12 11 12 11 9 7 4 -2 -4 -4 -5 -6 -0 -1 4 4 4 2 -0 0 1 3 4 3 2 -6 -6 -6 -7 -8 -11 -8
12 13 13 11 11 12 11 10 10 11 11 11 10 11 9 6 3 -0 -1 -2 -3 -5 -6 -5 1 4 4 4 4 3 3 3 2 3 3 1 0 -1 -5 -6 -7 -9 -12
12 12 12 12 11 11 12 11 10 10 11 9 8 7 4 3 1 -0 1 -2 -4 -5 -6 -4 1 4 4 4 3 3 3 3 2 1 -1 -3 -4 -4 -4 -5 -6 -8 -13
11 12 12 12 11 11 12 11 10 10 7 6 5 5 2 1 0 0 1 -2 -4 -2 -0 -1 2 3 4 3 2 3 2 2 1 -0 -2 -3 -3 -4 -3 -4 -5 -9 -16
9 12 12 12 12 10 11 11 10 9 6 5 5 3 1 2 1 0 1 -2 -3 -2 -1 -4 -2 4 4 2 2 2 1 1 0 -1 -2 -3 -3 -3 -4 -4 -6 -7 -4
8 10 12 11 11 11 11 11 10 9 6 5 4 3 3 2 1 0 1 -1 -3 1 1 -4 0 3 3 2 1 1 0 0 -0 -1 -2 -3 -3 -3 -3 -5 -9 -11 -5
9 10 11 10 10 10 11 11 10 7 6 5 5 4 3 2 0 -0 -1 -0 -1 1 -2 -4 -0 2 2 2 1 -0 -0 -1 -1 -1 -2 -3 -3 -3 -3 -4 -9 -10 -8
5 5 7 9 9 9 10 10 8 7 6 5 4 3 2 0 -1 -1 -2 -3 -4 -3 -3 -6 1 2 2 2 1 -0 0 -0 -2 -2 -2 -2 -3 -4 -4 -4 -5 -6 -5
4 4 5 6 8 9 9 8 7 6 5 5 4 2 1 0 -1 -1 -2 -2 -4 -6 -8 -8 -7 -0 1 1 1 0 0 -0 -1 -3 -3 -3 -4 -4 -4 -5 -5 -5 -5
5 5 5 5 6 7 8 7 6 5 5 4 3 3 3 3 2 1 -0 -2 -3 -5 -9 -11 -9 -9 -6 1 1 0 0 -1 -1 -2 -3 -3 -4 -5 -5 -5 -5 -5 -5

GFSSE_850_dewp_207.txt.gz
Dewpoint
12 14 11 10 10 10 11 11 11 12 13 12 13 12 11 10 9 8 6 5 4 3 2 3 2 0 0 -0 -1 -0 2 4 3 4 6 8 10 9 8 11 13 10 6
12 14 11 11 11 11 11 11 11 11 12 12 10 11 10 9 8 6 5 5 4 4 3 3 2 1 2 1 0 -1 -0 2 3 6 8 9 10 9 8 8 9 8 8
13 14 11 13 11 11 11 11 10 11 11 12 10 10 10 9 6 6 6 11 12 9 6 7 5 4 3 3 2 1 -0 0 2 7 10 14 10 10 9 8 7 8 8
14 14 14 13 13 12 12 12 11 11 10 10 10 9 9 7 6 6 8 9 9 7 8 8 8 8 8 7 5 3 2 1 1 7 11 14 14 9 10 10 9 8 8
14 14 14 10 13 13 13 12 12 11 10 10 10 9 7 5 6 6 8 8 8 8 8 8 8 8 8 9 9 9 7 3 8 13 13 13 13 9 11 11 11 9 9
14 14 14 7 6 10 11 11 11 10 8 10 9 7 5 7 6 7 8 9 8 8 8 6 4 1 -1 -0 2 6 10 10 12 13 11 10 11 11 11 11 11 11 10
14 14 14 6 5 8 9 9 9 8 9 9 8 6 5 6 7 8 9 9 8 7 3 -2 -6 -7 -7 -8 -8 -4 9 12 13 12 13 12 12 12 12 12 12 11 11
14 14 14 7 12 13 11 12 11 11 10 11 10 7 6 7 8 9 8 7 7 3 -4 -7 -9 -10 -11 -11 -10 -8 6 10 10 12 12 12 12 12 12 12 12 12 12
14 14 13 12 12 12 12 12 12 13 12 12 12 7 8 9 10 9 7 7 5 -2 -8 -10 -11 -11 -12 -12 -12 -11 -3 10 10 10 10 11 11 11 11 11 11 11 10
14 14 13 14 13 12 12 12 12 13 12 11 11 9 9 11 11 9 8 7 2 -7 -10 -11 -11 -12 -11 -11 -11 -10 -5 5 8 8 10 10 10 9 9 8 6 4 3
14 14 14 13 13 13 13 11 11 12 12 12 13 12 12 12 11 9 8 5 -1 -9 -10 -11 -11 -11 -11 -11 -9 -3 7 7 6 7 9 3 6 6 -1 -4 -6 -8 -10
14 14 14 14 14 13 14 13 11 11 12 12 12 12 12 11 11 9 8 4 -4 -10 -10 -10 -10 -10 -8 -6 -3 2 5 5 8 8 7 7 7 6 -1 -7 -7 -9 -10
14 14 14 14 14 14 14 13 12 12 11 11 12 12 12 11 10 8 7 2 -4 -9 -10 -9 -9 -8 5 4 3 4 5 5 7 8 9 8 8 6 1 -8 -12 -14 -15
14 13 14 14 14 14 14 13 12 12 13 12 12 12 11 11 11 9 8 4 -2 -7 -6 -8 -6 3 5 4 5 5 4 6 7 7 8 8 7 2 -7 -11 -14 -16 -17
14 14 13 14 14 13 13 12 12 13 13 12 11 11 11 12 11 10 7 6 2 -2 3 2 2 5 5 5 5 5 5 6 7 6 7 7 5 -1 -10 -12 -11 -11 -12
13 14 13 13 13 13 12 12 12 12 11 12 12 11 11 11 9 10 8 5 0 1 3 2 3 4 5 5 5 5 6 6 6 6 4 6 3 -6 -8 -9 -9 -8 1
12 13 14 13 13 12 12 12 12 11 11 12 12 11 11 11 11 10 8 4 3 3 3 3 3 5 5 5 5 5 5 5 5 5 4 -2 -5 -7 -7 -7 -8 -9 -1
12 12 13 13 13 12 12 12 11 11 10 11 11 11 11 11 11 10 6 3 3 3 3 2 3 4 5 4 5 4 4 4 5 4 3 2 0 -4 -6 -6 -7 -9 -9
10 11 12 13 12 12 12 12 11 11 11 11 11 11 10 11 10 8 3 3 4 4 3 2 3 4 4 4 4 4 4 4 4 3 2 -0 -2 -2 -4 -5 -5 -8 -12
7 10 12 13 12 12 11 11 11 11 10 9 10 9 8 8 7 4 3 4 5 4 3 2 2 4 4 4 3 4 3 3 2 1 -1 -1 -1 -1 -2 -2 -3 -7 -15
7 9 12 13 11 12 11 11 10 10 10 10 9 8 7 7 6 3 4 5 4 3 2 2 2 4 4 4 3 3 3 3 1 -0 -1 -1 -1 -1 -2 -3 -5 -4 -4
8 9 11 12 11 11 11 11 10 9 9 9 8 6 7 7 6 6 4 4 3 3 3 3 2 4 4 4 3 2 2 1 1 -0 -1 -1 -1 -2 -2 -3 -5 -4 -3
9 10 10 11 11 11 11 10 10 9 8 7 6 6 6 6 5 5 4 4 4 3 3 3 3 4 4 3 2 1 1 0 1 -0 -1 -2 -1 -2 -2 -3 -4 -4 -3
9 7 8 5 6 9 10 10 9 9 8 7 6 5 5 5 4 3 3 3 3 3 3 3 3 4 4 3 2 1 1 1 -0 -0 -1 -1 -1 -2 -2 -4 -4 -4 -3
7 -2 -4 -3 1 3 6 7 9 8 8 7 6 5 5 4 3 3 2 1 1 1 2 2 3 4 3 2 3 1 1 1 -0 -1 -1 -1 -2 -3 -3 -3 -4 -4 -4
-4 -4 -3 -4 -4 -2 4 6 7 8 8 7 6 5 5 4 3 2 2 1 -0 -1 -1 1 2 3 3 3 3 2 1 1 -0 -2 -2 -2 -3 -3 -3 -3 -4 -4 -4

GFSSE_850_dewp_210.txt.gz
Dewpoint
14 12 9 9 10 10 11 11 10 11 12 12 13 12 10 10 8 7 5 3 3 2 1 1 0 0 -0 -1 -1 -0 1 1 -0 2 6 8 9 8 10 12 11 7 6
14 13 8 9 9 9 10 11 11 11 12 12 12 12 10 8 8 6 4 4 3 3 2 2 2 2 1 0 -1 -1 0 1 1 4 6 9 9 8 7 8 7 8 8
14 13 9 9 9 9 10 11 10 11 11 11 11 12 10 7 7 4 4 6 11 7 6 6 4 3 3 2 1 1 -0 0 4 9 12 14 11 10 8 8 7 6 7
15 14 9 10 9 9 10 10 10 10 10 10 10 10 9 8 4 4 6 8 10 8 7 7 8 7 7 6 4 3 1 2 8 10 13 13 6 10 9 9 9 7 9
15 14 9 11 11 11 11 11 11 10 10 10 9 9 9 7 3 3 5 6 7 7 7 7 8 7 8 8 8 7 4 3 11 13 13 13 13 9 10 10 11 9 9
15 14 11 12 13 12 12 12 12 11 10 10 10 10 8 7 4 6 5 8 7 6 6 5 4 3 2 2 5 9 7 10 13 13 13 13 10 10 11 11 11 11 10
14 14 13 9 11 12 13 12 12 11 10 9 10 10 7 7 6 6 6 6 5 5 3 -1 -5 -7 -8 -8 -6 7 11 12 12 11 11 11 11 12 12 12 11 11 11
14 14 13 9 6 9 11 11 9 9 9 11 10 9 9 6 6 7 7 6 4 3 -2 -6 -9 -10 -11 -11 -10 2 12 12 11 10 10 12 12 11 11 11 11 11 11
14 14 13 9 5 7 9 8 9 9 10 10 9 9 11 9 7 9 9 6 4 2 -5 -9 -11 -11 -12 -12 -12 -2 8 11 10 9 9 10 11 10 10 11 9 10 9
15 14 13 7 7 10 11 11 11 11 11 10 10 9 9 9 10 11 9 8 6 1 -7 -11 -11 -12 -12 -12 -12 -7 9 9 10 10 9 9 10 9 8 7 3 1 -1
14 14 13 12 12 12 11 12 12 13 12 12 11 11 11 9 11 11 10 8 6 -0 -9 -11 -11 -11 -11 -11 -10 -1 6 8 8 8 8 9 9 3 -1 -5 -8 -11 -13
13 14 13 13 13 12 12 12 11 12 12 12 12 12 12 12 12 11 10 8 5 -2 -10 -11 -11 -11 -10 -10 -5 6 6 6 7 8 5 8 7 -2 -8 -9 -10 -11 -13
14 14 13 13 13 13 12 12 12 11 11 11 11 12 12 11 11 10 9 8 4 -4 -10 -10 -11 -11 -5 -5 -1 5 6 6 7 8 7 8 6 1 -8 -11 -13 -15 -16
14 15 14 13 14 14 14 14 14 13 13 12 12 11 10 11 11 10 10 9 5 -3 -8 -10 -10 -1 5 4 4 5 4 7 7 7 7 7 6 1 -8 -11 -13 -15 -16
14 14 15 14 14 14 14 14 14 13 12 12 12 12 12 11 10 11 11 9 6 2 -4 -8 -8 1 5 4 5 5 6 6 7 7 7 7 7 1 -10 -11 -10 -11 -11
13 13 14 14 14 14 14 14 13 13 12 11 13 13 12 11 11 11 10 9 7 5 1 -0 -2 3 3 4 5 4 7 6 6 6 6 7 6 -2 -10 -10 -9 1 1
12 13 13 13 14 13 14 13 12 12 11 12 11 11 12 12 11 11 10 10 7 3 3 2 3 3 5 5 5 5 6 6 6 6 4 6 5 -7 -8 -9 -9 -6 5
11 12 13 13 13 12 12 12 12 11 11 11 11 10 11 12 12 11 10 10 7 3 2 3 3 4 5 5 5 5 5 5 5 5 3 0 -4 -7 -7 -7 -8 -8 -5
10 11 13 13 13 12 12 12 12 12 11 11 11 10 10 11 11 11 11 10 5 3 3 3 3 4 5 5 5 5 5 5 4 4 2 2 0 -3 -5 -5 -6 -8 -9
6 9 12 12 13 12 12 12 12 12 12 11 10 10 10 11 11 11 11 9 4 3 3 3 3 4 5 5 5 4 4 4 4 3 3 1 -1 -2 -3 -4 -5 -7 -12
5 8 11 13 13 12 11 11 11 12 11 11 10 10 10 10 9 10 9 5 3 4 4 3 3 3 5 5 4 4 4 3 2 2 -1 -1 -1 -2 -2 -3 -4 -4 -7
8 9 11 12 12 12 10 10 11 11 11 10 10 10 9 9 8 8 7 4 4 4 4 3 2 3 5 4 4 4 3 2 1 -0 -1 -1 -1 -2 -3 -4 -4 -2 -5
8 10 10 11 11 11 10 10 10 10 9 9 9 8 8 7 8 7 7 5 5 5 4 3 2 2 5 5 4 3 3 2 1 -0 -1 -1 -2 -2 -3 -4 -6 -3 -3
3 1 2 -0 4 3 5 9 10 10 10 9 9 8 7 6 7 7 7 6 5 5 4 3 3 2 5 5 4 3 1 1 1 -0 -1 -1 -1 -2 -2 -4 -5 -4 -5
5 -3 -6 -6 -6 -6 -5 -1 5 7 7 8 8 8 7 6 6 7 6 6 5 5 4 4 4 3 5 5 3 2 2 2 1 0 0 -1 -1 -1 -2 -3 -5 -3 -3
2 1 0 -3 -4 -6 -5 -3 -0 4 6 8 8 7 7 6 6 6 5 5 5 4 4 3 4 3 5 5 4 3 2 1 0 -0 -0 -0 -1 -2 -2 -3 -4 -4 -4

GFSSE_850_dewp_216.txt.gz
Dewpoint
12 7 7 8 8 9 10 10 10 9 9 9 10 8 7 4 1 -1 -1 -1 -1 -1 -1 -1 -2 -2 -1 -0 3 4 3 2 2 7 8 8 7 9 7 7 7 7 5
12 9 8 10 10 10 10 9 10 10 10 9 9 8 6 5 3 0 -1 -1 0 1 1 0 -0 -1 -1 -1 1 2 3 4 6 7 8 8 8 8 7 5 5 5 6
13 11 8 9 9 10 10 9 10 10 9 9 8 7 6 5 3 1 1 0 1 2 2 2 1 1 0 -0 -1 -0 2 6 8 9 10 10 10 9 9 9 7 6 6
13 12 10 9 9 10 10 8 9 9 9 8 8 7 7 6 3 1 2 3 2 2 3 4 4 4 3 2 1 -0 2 7 9 11 12 12 9 11 10 11 11 9 8
14 13 11 9 8 9 9 9 10 10 9 9 9 9 7 6 3 2 3 3 3 2 2 4 4 5 6 5 3 1 1 4 7 11 12 8 10 11 11 10 9 9 9
13 13 12 9 9 8 8 9 9 10 10 9 9 8 7 6 3 3 3 2 1 1 2 0 1 2 5 7 6 3 2 5 10 11 12 12 12 11 11 11 10 10 10
13 14 12 10 9 9 9 9 10 10 10 10 10 9 8 7 4 4 4 3 -1 0 0 -2 -6 -6 -2 5 8 6 8 11 11 12 12 11 11 12 11 10 10 10 10
11 12 12 10 9 9 9 10 10 11 11 10 10 9 8 7 4 5 6 6 4 2 0 -4 -8 -9 -8 -0 8 8 10 12 11 10 11 11 11 12 11 9 8 8 8
10 11 9 10 10 10 10 11 11 11 11 10 10 9 8 6 4 5 5 5 4 1 -1 -5 -9 -10 -10 -4 10 9 12 12 11 10 10 9 11 11 10 9 3 4 4
13 13 12 10 10 10 12 11 12 12 11 10 9 9 9 8 7 5 6 7 6 3 -0 -4 -10 -11 -11 -7 12 10 10 10 10 8 9 9 8 9 7 5 -0 -1 -3
14 14 14 13 11 10 10 11 12 11 10 9 9 9 9 7 6 5 7 8 7 6 2 -2 -9 -11 -12 -10 11 11 9 9 10 10 9 8 8 6 6 -2 -6 -10 -11
14 14 14 13 12 8 5 7 8 9 9 10 10 10 10 9 7 7 8 9 9 8 5 -0 -9 -11 -11 -10 2 10 9 9 10 11 9 8 7 -0 -5 -8 -9 -10 -10
8 11 12 11 8 7 5 5 7 8 9 10 10 11 10 10 8 7 9 10 10 9 7 1 -7 -11 -11 -9 -2 9 9 8 10 10 8 8 5 -2 -9 -9 -11 -12 -13
9 9 10 11 11 9 8 8 9 10 10 10 10 11 11 10 9 9 9 9 10 9 7 1 -8 -10 -10 -6 2 8 8 7 8 8 7 7 6 2 -8 -10 -12 -13 -14
10 9 8 11 13 12 12 12 12 12 12 12 11 11 11 11 11 10 10 10 10 10 9 4 -5 -9 -10 -4 2 6 6 7 8 7 7 7 6 -1 -7 -5 -6 -9 -11
11 11 11 12 12 12 12 13 12 12 13 13 13 12 12 12 12 12 11 11 10 9 9 9 -1 -9 -5 -0 5 4 5 6 7 7 7 7 6 4 -3 1 3 -1 -1
11 12 11 11 12 13 13 13 13 13 13 13 13 13 13 13 12 12 12 11 11 10 9 9 4 -7 2 1 2 2 4 6 6 6 7 7 6 5 1 -7 6 6 5
11 12 12 11 12 12 13 13 12 12 12 12 12 12 12 12 12 12 12 12 12 11 10 9 8 2 -0 5 5 5 5 5 6 7 7 7 6 5 1 -8 1 5 5
11 11 12 12 12 12 13 13 13 12 12 11 11 11 11 11 11 11 12 12 12 11 11 10 8 4 -2 4 6 6 6 6 6 7 7 6 6 4 2 -8 -5 5 5
12 12 12 12 13 13 13 12 12 12 11 10 10 10 12 11 11 10 10 11 11 10 10 9 8 7 4 3 5 6 6 7 7 7 6 5 3 2 -3 -7 -6 1 5
10 12 12 13 13 13 13 13 12 12 11 10 9 10 9 12 10 8 8 9 10 11 10 10 8 5 5 5 5 6 7 7 6 6 5 4 2 -2 -6 -6 -7 -2 1
7 12 13 12 12 12 12 12 12 12 11 11 10 11 12 11 11 9 9 8 8 10 10 9 9 6 5 6 6 6 6 5 4 3 4 3 1 -1 -3 -4 -4 -5 -6
7 10 11 12 10 7 -2 -1 -0 4 8 8 9 10 10 10 9 8 9 8 9 9 8 8 8 7 6 5 7 6 4 3 3 2 1 1 2 1 -1 -3 -4 -4 -5
11 11 11 10 6 -4 -7 -7 -7 -6 -5 -6 -4 6 8 8 8 8 7 8 8 8 8 7 7 6 6 6 6 6 6 5 2 0 -0 -0 -0 -1 -2 -2 -3 -3 -3
5 3 -2 -6 -5 -5 -5 -5 -5 -5 -5 -3 -1 1 7 7 7 7 6 7 7 8 7 7 7 5 5 5 5 6 6 5 3 1 1 0 0 -1 -2 -3 -3 -3 -3
-4 -3 -4 -5 -5 -5 -5 -5 -5 -5 -4 -1 -1 1 2 4 4 5 6 6 7 6 7 6 7 6 6 6 5 6 6 5 4 3 1 0 -0 -2 -2 -2 -2 -2 -3

GFSSE_850_dewp_219.txt.gz
Dewpoint
12 10 9 10 10 10 10 6 7 7 6 7 8 8 6 3 2 1 0 -1 -1 -1 -2 -2 -2 -1 -1 -1 1 2 2 1 3 6 8 8 8 8 6 7 6 5 5
11 8 8 9 9 10 10 8 8 8 8 9 9 7 5 4 1 0 0 0 -0 -0 -0 -1 -1 -2 -1 0 1 2 2 3 5 8 8 8 7 6 6 5 5 6 5
11 8 8 9 8 8 8 8 9 10 10 9 9 7 5 3 1 0 0 0 1 1 1 1 0 0 -1 -1 1 3 4 6 7 8 9 9 9 8 8 8 6 7 7
12 10 8 10 9 8 8 9 10 11 11 10 10 8 6 5 2 1 2 2 2 2 3 2 2 2 1 0 -0 2 5 7 11 11 11 11 10 11 11 10 7 7 8
12 11 9 9 10 10 10 10 11 11 11 11 10 9 7 6 2 1 3 3 3 3 4 3 3 4 4 3 1 0 2 7 10 11 12 9 10 12 11 10 9 9 9
13 12 11 10 9 10 10 9 10 11 11 11 10 9 8 6 3 3 4 4 4 4 3 2 4 5 5 5 4 2 2 6 9 12 12 11 12 12 11 11 11 10 9
12 13 12 10 9 9 9 9 9 10 10 9 9 9 7 6 3 3 3 3 4 4 3 -0 -0 1 2 1 5 5 4 7 11 12 12 12 11 11 11 11 10 10 10
12 13 12 10 10 9 9 9 10 10 10 10 9 8 7 5 3 2 3 3 3 2 2 -2 -5 -5 -4 -4 -1 6 8 9 11 12 11 11 11 11 10 9 8 8 8
12 13 12 11 10 10 10 10 10 10 10 11 10 9 8 6 6 3 4 5 4 2 1 -2 -7 -7 -7 -7 -3 4 8 10 11 10 9 10 9 10 9 8 6 3 4
11 12 10 10 10 9 9 9 10 10 11 11 10 9 8 7 6 5 5 6 6 5 2 0 -6 -8 -8 -8 -4 8 9 11 11 10 9 8 8 7 2 -0 -2 -1 -2
9 10 10 8 7 9 10 10 11 11 11 11 11 10 9 8 7 6 6 7 7 7 5 2 -4 -9 -9 -9 -5 6 9 11 10 10 9 9 8 7 5 -3 -4 -8 -11
10 11 12 12 11 10 11 11 11 11 11 11 10 10 10 10 9 9 7 7 8 8 7 5 -2 -9 -9 -9 -2 6 9 10 9 9 10 9 8 7 2 -6 -9 -8 -8
5 10 12 13 13 12 10 9 10 11 11 11 10 11 11 10 10 9 7 8 9 10 9 7 2 -9 -9 -9 -5 2 11 10 9 9 10 10 8 7 3 -8 -9 -8 -8
6 10 10 12 12 11 11 8 8 8 9 10 10 10 10 10 10 9 8 10 10 9 10 9 4 -7 -9 -8 -7 1 10 10 9 10 10 8 7 6 3 -7 -8 -9 -9
7 9 9 10 9 9 8 7 8 9 10 10 11 11 11 11 11 11 10 10 10 10 10 9 8 -4 -8 -7 -5 -0 7 9 9 9 8 7 7 6 2 -8 -7 -1 -4
7 9 9 9 10 11 11 11 11 11 12 12 12 12 12 12 12 12 12 11 11 10 10 9 9 7 -7 -7 -2 -0 6 7 7 8 8 7 7 6 5 -1 -3 2 3
7 9 10 10 10 11 11 11 12 12 12 11 12 13 13 13 13 13 12 11 11 11 11 10 9 8 -5 -6 -0 4 5 5 6 7 7 7 7 7 6 1 2 3 5
9 10 11 11 11 12 12 12 13 12 12 12 11 12 12 12 11 11 11 11 10 12 11 11 10 9 -3 -3 0 2 5 5 6 7 7 7 7 7 6 3 2 6 5
9 10 12 11 12 12 13 13 13 13 13 12 11 10 10 11 12 11 11 10 10 11 11 11 10 10 7 -2 4 6 6 6 6 7 7 7 7 7 6 4 -4 5 5
9 11 12 12 12 13 13 14 14 13 12 11 10 10 9 9 11 11 11 10 10 10 10 10 10 10 6 5 2 5 6 7 7 7 7 7 7 6 5 3 -3 5 5
10 11 12 12 12 14 13 13 12 12 11 11 9 9 10 11 12 11 10 9 7 7 9 10 10 9 8 7 6 6 7 8 8 8 7 7 7 5 4 0 -5 5 5
11 12 13 13 13 13 13 13 12 11 11 11 4 7 10 9 8 10 10 10 9 9 9 9 10 9 9 7 7 7 6 6 6 6 6 5 4 2 -1 -5 -5 1 4
11 12 13 13 13 14 13 11 5 1 -3 -4 -6 -5 -1 1 5 6 8 7 8 8 8 8 9 9 8 8 7 6 5 5 5 5 5 2 -3 -2 -3 -4 -6 1 2
11 13 13 13 13 8 -5 -7 -6 -5 -6 -6 -6 -5 -3 -2 2 7 6 6 7 7 7 7 8 8 8 8 7 6 6 5 4 3 2 0 -1 -1 -2 -2 -3 -4 -4
11 11 10 6 -5 -5 -5 -5 -5 -6 -6 -6 -6 -3 -2 -3 -0 1 4 6 7 6 6 7 7 8 6 7 6 7 6 6 5 4 2 1 0 -0 -1 -1 -0 2 -2
2 -2 -4 -5 -5 -5 -6 -6 -6 -6 -7 -5 -1 1 -2 0 1 1 -0 2 4 4 7 7 7 6 5 7 7 6 6 6 5 4 3 2 1 0 -1 -1 -1 -1 -1

GFSSE_850_dewp_225.txt.gz
Dewpoint
12 10 9 9 8 8 9 9 8 7 6 6 6 4 2 -0 -1 -2 -2 -2 -2 -3 -3 -3 -0 2 1 -0 1 1 2 3 6 5 6 6 5 6 6 5 4 3 5
10 10 9 9 10 9 9 8 7 6 6 7 7 5 2 0 -1 -0 -0 -1 -1 -1 -2 -2 -2 -1 -1 -0 -0 0 -0 3 7 7 7 6 5 5 3 4 5 4 4
10 10 10 9 10 10 9 9 8 8 9 9 8 6 3 1 -0 -0 0 0 0 -0 -0 -1 -1 -1 -0 -0 -0 0 2 4 5 6 8 10 8 9 7 5 5 8 6
10 10 11 10 11 11 10 9 9 9 10 9 8 6 4 1 1 0 0 1 1 1 1 1 0 0 0 0 1 2 3 4 5 8 10 11 12 11 10 8 7 7 10
10 9 11 11 11 12 11 10 9 10 10 10 8 6 4 3 1 1 2 2 1 2 2 1 1 1 1 1 1 2 4 6 10 10 10 11 12 12 9 9 10 10 9
10 8 10 11 11 12 11 11 10 10 10 10 9 7 5 4 2 2 4 3 2 3 3 3 4 3 4 3 2 2 3 5 8 9 10 9 12 12 10 9 10 11 11
10 9 9 10 10 11 11 11 10 10 10 10 8 8 7 6 4 3 4 4 3 4 3 3 3 4 6 5 4 4 3 6 8 10 11 11 12 11 10 9 10 11 11
11 10 10 11 11 10 10 11 10 10 10 10 9 9 8 7 6 4 5 5 5 4 3 2 1 0 1 3 5 5 5 7 10 11 12 12 11 9 7 7 9 11 10
12 11 11 11 12 12 11 11 11 10 10 10 9 9 9 8 7 6 5 5 6 6 4 3 -0 -4 -5 -3 1 5 7 9 10 11 12 11 9 7 7 4 6 6 3
12 12 12 11 11 11 11 11 11 11 11 10 10 10 10 9 8 7 7 6 6 7 7 4 2 -3 -6 -7 -3 2 6 9 10 11 11 11 9 7 6 5 -3 2 -3
12 12 12 11 11 10 11 11 11 11 11 10 10 11 10 10 8 8 8 7 7 8 8 7 6 2 -4 -8 -6 3 10 12 12 11 11 10 8 8 8 4 -5 -5 -5
10 9 10 11 11 10 10 10 10 10 10 10 11 11 11 10 9 8 8 8 7 8 9 9 9 7 2 -6 -9 -3 8 11 11 11 11 9 8 9 8 5 1 -6 -9
6 8 9 9 10 10 10 10 10 10 10 11 11 11 11 10 8 8 8 8 7 8 9 9 9 10 7 -1 -8 -9 1 9 11 11 11 10 9 9 8 5 1 -5 -9
3 5 8 10 9 9 9 10 10 11 11 11 11 11 10 8 8 8 7 8 10 10 10 9 9 9 8 4 -4 -8 -7 6 11 10 10 10 9 10 8 5 1 -7 -9
3 3 5 8 9 10 11 11 11 11 11 11 10 9 8 8 9 10 10 10 9 10 10 10 9 10 9 8 2 -6 -8 -6 6 9 10 10 10 10 8 6 3 -1 -7
3 4 4 6 9 11 11 12 12 12 10 8 8 10 11 11 11 10 10 10 11 12 11 10 10 11 10 9 7 1 -3 -5 -4 6 10 10 10 10 8 6 5 4 0
4 5 5 7 9 10 10 11 10 9 8 10 11 11 11 11 12 13 13 12 12 12 12 11 11 11 11 10 7 4 -1 -3 -3 4 9 10 10 9 8 6 6 5 3
7 5 6 7 9 10 10 10 10 11 11 11 11 11 11 11 12 13 12 11 12 12 12 12 12 11 11 11 11 8 2 1 4 3 7 9 9 9 7 7 6 5 3
9 8 7 7 9 10 11 11 11 12 11 11 11 12 12 12 12 11 11 11 12 12 12 11 10 11 11 10 10 10 6 3 6 5 7 8 7 8 7 7 7 6 6
8 10 9 9 9 11 11 12 12 13 12 12 12 13 11 11 11 9 10 9 10 10 11 11 10 10 9 9 9 9 8 7 6 6 6 7 8 5 5 7 7 6 6
4 9 10 10 10 11 12 12 13 12 12 12 13 10 11 10 8 4 6 5 7 8 10 11 10 9 8 7 8 8 8 7 6 7 8 8 7 6 5 7 6 6 6
-1 2 10 12 11 12 12 12 12 12 13 13 11 10 8 -5 -7 -7 -5 -0 6 7 8 9 8 7 7 7 8 7 7 6 6 6 6 6 6 7 7 7 6 6 5
2 3 6 11 12 12 12 12 12 12 12 11 7 -3 -6 -8 -8 -7 -2 -3 -1 3 8 8 9 8 7 7 6 8 6 6 6 6 6 7 7 7 6 6 6 6 5
5 6 7 10 13 13 13 13 13 12 7 -3 -6 -7 -9 -8 -6 -3 -3 -5 -4 -4 -1 6 7 6 6 6 7 6 6 7 6 5 5 6 7 6 5 5 6 5 5
10 11 11 13 13 13 13 13 12 5 -6 -6 -8 -9 -9 -5 -1 -0 0 1 0 1 -1 1 4 5 6 6 7 7 7 7 6 6 5 5 5 5 5 5 5 5 4
10 12 13 13 14 13 13 12 -1 -6 -6 -7 -9 -10 -8 -7 -2 1 2 3 2 0 1 0 0 2 4 3 5 6 6 6 6 6 5 5 5 4 4 4 4 4 4